Location: Gull Harbor
(47.1000°N, 122.9000°W)
Time: 13:32:46
(UTC-07:00)

Tiangong - Visible Passes

Search period start: 10 August 2022 00:00
Search period end: 20 August 2022 00:00
Orbit: 379 x 386 km, 41.5° (Epoch: 10 August)

Date Brightness Start Highest point End Pass type
(mag) Time Alt. Az. Time Alt. Az. Time Alt. Az.
15 Aug 0.0 21:54:16 10° SSW 21:55:12 14° S 21:55:12 14° S visible
16 Aug 0.0 20:54:56 10° S 20:56:21 12° SSE 20:57:47 10° SE visible
16 Aug 0.4 22:29:51 10° SW 22:30:22 13° SW 22:30:22 13° SW visible
17 Aug -0.8 21:29:51 10° SW 21:32:23 22° SSE 21:33:06 20° SE visible
18 Aug -0.8 22:05:44 10° WSW 22:07:51 26° SSW 22:07:51 26° SSW visible
19 Aug -0.9 21:05:35 10° SW 21:08:17 26° S 21:10:19 14° ESE visible
19 Aug 0.5 22:41:57 10° WSW 22:42:29 13° WSW 22:42:29 13° WSW visible
